This demonstration page uses our WeatherBlox Daily Observations layout. Learn more.

Left ArrowRight Arrow

Hourly Observations for May 18, 2020

Temp ( °F °C ) Dew Point ( °F °C ) Humidity (%) Winds ( mph kmh ) Pressure ( in mb ) Visibility ( mi km ) Precip ( " mm )
12:53 am 00:53 Cloudy 59 15 50 10 72 72 SSW 8 13 29.73 1007 10 16 0.00 0.00
1:43 am 01:43 Cloudy with Rain 56 13.3 52 11.1 87 87 SW 8 13 29.74 1007 10 16 0.08 2.03
1:53 am 01:53 Cloudy with Rain 56 13.3 52 11.1 87 87 SW 7 11 29.72 1007 10 16 0.10 2.54
2:21 am 02:21 Cloudy with Light Rain 56 13.3 53 11.7 90 90 SSW 5 7 29.73 1007 10 16 0.03 0.76
2:53 am 02:53 Cloudy with Light Rain 56 13.3 52 11.1 87 87 SSW 5 7 29.72 1006 10 16 0.07 1.78
3:22 am 03:22 Cloudy 55 12.8 53 11.7 93 93 S 3 6 29.73 1007 10 16 0.00 0.00
3:29 am 03:29 Cloudy 55 12.8 52 11.1 90 90 Calm 29.72 1007 10 16 0.00 0.00
3:44 am 03:44 Cloudy 56 13.3 52 11.1 87 87 Calm 29.72 1006 10 16 0.00 0.00
3:53 am 03:53 Cloudy 56 13.3 52 11.1 87 87 Calm 29.71 1006 10 16 0.00 0.00
4:13 am 04:13 Cloudy with Light Rain 55 12.8 52 11.1 90 90 SW 3 6 29.72 1007 10 16 0.00 0.00
4:35 am 04:35 Cloudy with Light Rain 55 12.8 52 11.1 90 90 W 3 6 29.72 1007 10 16 0.01 0.25
4:53 am 04:53 Cloudy with Light Rain 54 12.2 52 11.1 93 93 W 3 6 29.72 1006 10 16 0.03 0.76
5:43 am 05:43 Cloudy 54 12.2 50 10 87 87 ESE 5 7 29.75 1008 10 16 0.02 0.51
5:50 am 05:50 Cloudy 54 12 50 10 88 88 Calm 29.75 1008 10 16 0.02 0.51
5:53 am 05:53 Cloudy 54 12.2 50 10 87 87 VRB 3 6 29.73 1007 10 16 0.02 0.51
6:03 am 06:03 Cloudy with Light Rain 54 12.2 49 9.4 83 83 S 5 7 29.74 1007 10 16 0.00 0.00
6:46 am 06:46 Cloudy with Light Rain 54 12.2 49 9.4 83 83 Calm 29.77 1008 10 16 0.00 0.00
6:53 am 06:53 Cloudy with Light Rain 53 11.7 50 10 89 89 Calm 29.77 1008 10 16 0.01 0.25
7:08 am 07:08 Cloudy 53 11.7 50 10 89 89 E 3 6 29.78 1009 10 16 0.00 0.00
7:18 am 07:18 Cloudy with Light Rain 53 11.7 51 10.6 93 93 Calm 29.78 1009 10 16 0.00 0.00
7:53 am 07:53 Cloudy with Light Rain 54 12.2 51 10.6 90 90 S 6 9 29.78 1008 10 16 0.32 8.13
8:02 am 08:02 Cloudy with Light Rain 54 12.2 52 11.1 93 93 SSW 6 9 29.80 1009 10 16 0.01 0.25
8:23 am 08:23 Cloudy 52 11.1 49 9.4 89 89 NW 5 7 29.83 1010 10 16 0.02 0.51
8:53 am 08:53 Cloudy 51 10.6 49 9.4 92 92 N 9 15 29.82 1010 10 16 0.02 0.51
9:32 am 09:32 Cloudy 50 10 47 8.3 89 89 NNE 8 13 29.86 1011 10 16 0.01 0.25
9:53 am 09:53 Cloudy with Rain 50 10 48 8.9 93 93 N 7 11 29.85 1011 10 16 0.01 0.25
10:25 am 10:25 Cloudy with Light Rain 50 10 47 8.3 89 89 N 9 15 29.87 1011 10 16 0.19 4.83
10:53 am 10:53 Cloudy with Light Rain 50 10 47 8.3 89 89 NNE 12 19 29.86 1011 10 16 0.23 5.84
11:31 am 11:31 Cloudy with Thunderstorms 50 10 48 8.9 93 93 NNW 7 11 29.91 1013 10 16 0.02 0.51
11:46 am 11:46 Cloudy with Nearby Thunderstorms 50 10 48 8.9 93 93 VRB 5 7 29.91 1013 10 16 0.08 2.03
11:53 am 11:53 Cloudy with Rain 49 9.4 48 8.9 97 97 Calm 29.89 1012 7 11 0.14 3.56
12:00 pm 12:00 Cloudy with Rain 49 9.4 47 8.3 93 93 N 6 9 29.91 1013 8 13 0.04 1.02
12:53 pm 12:53 Cloudy 51 10.6 49 9.4 92 92 NNE 8 13 29.89 1012 10 16 0.22 5.59
1:08 pm 13:08 Cloudy with Nearby Thunderstorms 51 10.6 49 9.4 92 92 NE 8 13 29.92 1013 10 16 0.00 0.00
1:17 pm 13:17 Cloudy with Light Rain 52 11.1 49 9.4 89 89 NE 6 9 29.92 1013 10 16 0.00 0.00
1:53 pm 13:53 Cloudy with Light Rain 52 11.1 49 9.4 89 89 N 9 15 29.91 1013 10 16 0.03 0.76
2:53 pm 14:53 Cloudy with Light Rain 54 12.2 49 9.4 83 83 N 10 17 29.91 1013 10 16 0.00 0.00
3:53 pm 15:53 Cloudy 56 13.3 50 10 81 81 N 7 11 29.91 1013 10 16 0.01 0.25
4:53 pm 16:53 Cloudy 58 14.4 50 10 75 75 NNE 6 9 29.91 1013 10 16 0.00 0.00
5:53 pm 17:53 Mostly Cloudy 59 15 50 10 72 72 N 8 13 29.90 1013 10 16 0.00 0.00
6:53 pm 18:53 Mostly Cloudy 60 15.6 48 8.9 65 65 N 8 13 29.90 1013 10 16 0.00 0.00
7:53 pm 19:53 Partly Cloudy 56 13.3 48 8.9 75 75 NW 3 6 29.92 1013 10 16 0.00 0.00
8:53 pm 20:53 Cloudy 53 11.7 49 9.4 86 86 NW 3 6 29.93 1014 10 16 0.00 0.00
9:53 pm 21:53 Cloudy 54 12.2 50 10 87 87 Calm 29.96 1015 10 16 0.00 0.00
10:53 pm 22:53 Partly Cloudy 51 10.6 49 9.4 92 92 Calm 29.97 1015 10 16 0.00 0.00
11:53 pm 23:53 Mostly Clear 50 10 48 8.9 93 93 Calm 29.96 1015 10 16 0.00 0.00

Powered by AerisWeather